Tracking 19903 objects as of 16-Oct-2019
HD Live streaming from Space Station
objects crossing your sky now

FLOCK 3R 5

Track FLOCK 3R 5 now!
10-day predictions
FLOCK 3R 5 is classified as:


NORAD ID: 43726
Int'l Code: 2018-096H
Perigee: 479.0 km
Apogee: 501.3 km
Inclination: 97.5 °
Period: 94.3 minutes
Semi major axis: 6861 km
RCS: Unknown
Launch date: November 29, 2018
Source: United States (US)
Launch site: SRIHARIKOTA (SRI)
aabbcc
Your satellite tracking list
Your tracking list is empty




NASA's NSSDC Master Catalog

Two Line Element Set (TLE):
1 43726U 18096H   19288.77644661 +.00002160 +00000-0 +82620-4 0  9996
2 43726 097.4503 358.7474 0016210 273.9866 085.9520 15.27590520048918
Source of the keplerian elements: AFSPC